Bryce Canyon, UT

6:34 PM MST on December 12, 2019 (GMT -0700)
Bryce Canyon

Weather History for KBCE - August, 2019

Change the Weather History Date:

Thursday, August 1, 2019

  Actual Average Record
Temperature  
Mean Temperature 62 °F -  
Max Temperature 78 °F 80 °F 88 °F (2008)
Min Temperature 46 °F 47 °F 35 °F (1975)
Degree Days  
Heating Degree Days 3    
Growing Degree Days 12 (Base 50)    
Moisture  
Dew Point 47 °F    
Average Humidity 73    
Maximum Humidity 97    
Minimum Humidity 28    
Precipitation  
Precipitation 0.00 in - - ()
Sea Level Pressure  
Sea Level Pressure 30.18 in    
Wind  
Wind Speed 5 mph (West)    
Max Wind Speed 16 mph    
Max Gust Speed 21 mph    
Visibility 7 miles    
Events Fog    
Averages and records for this station are not official NWS values.
T = Trace of Precipitation, MM = Missing Value Source: NWS Daily Summary

Daily Weather History Graph

Daily Weather History Graph

Search for Another Location

Airport or City:

Astronomy

Aug. 01, 2019 Rise Set
Actual Time 6:32 AM MDT 8:37 PM MDT
Civil Twilight 6:03 AM MDT 9:06 PM MDT
Nautical Twilight 5:27 AM MDT 9:41 PM MDT
Astronomical Twilight 4:49 AM MDT 10:19 PM MDT
Moon 7:01 AM MDT (8/1) 9:27 PM MDT (8/1)
Length of Visible Light 15h 03m
Length of Day
14h 05m
New Moon, 1% of the Moon is Illuminated
Aug 1
New Moon
Aug 7
First Quarter
Aug 15
Full
Aug 23
Last Quarter
Aug 30
New

Hourly Weather History & Observations

Time (MDT) Temp. Dew Point Humidity Pressure Visibility Wind Dir Wind Speed Gust Speed Precip Events Conditions
12:53 AM 53.1 °F 51.1 °F 93% 30.07 in 10.0 mi West 6.9 mph - N/A   Clear
1:53 AM 51.1 °F 48.9 °F 92% 30.06 in 10.0 mi West 4.6 mph - N/A   Clear
2:53 AM 51.1 °F 48.9 °F 92% 30.06 in 10.0 mi WNW 5.8 mph - N/A   Clear
3:53 AM 51.1 °F 48.0 °F 89% 30.06 in 10.0 mi Calm Calm - N/A   Clear
4:32 AM 48.9 °F 48.0 °F 97% 30.35 in 1.5 mi NNW 4.6 mph - N/A   Partly Cloudy
4:35 AM 48.0 °F 46.9 °F 96% 30.35 in 0.8 mi NW 4.6 mph - N/A   Mist
4:49 AM 48.2 °F 46.4 °F 93% 30.35 in 2.0 mi Calm Calm - N/A   Mostly Cloudy
4:50 AM 48.0 °F 46.9 °F 96% 30.06 in 2.0 mi Calm Calm - N/A   Mostly Cloudy
4:56 AM 48.9 °F 46.9 °F 93% 30.35 in 0.8 mi West 3.5 mph - N/A   Mist
5:17 AM 48.9 °F 46.9 °F 93% 30.36 in 2.0 mi Calm Calm - N/A   Overcast
5:25 AM 48.0 °F 46.0 °F 93% 30.36 in 10.0 mi West 4.6 mph - N/A   Mostly Cloudy
5:41 AM 48.0 °F 46.0 °F 93% 30.37 in 10.0 mi West 6.9 mph - N/A   Scattered Clouds
5:53 AM 48.0 °F 46.0 °F 93% 30.09 in 10.0 mi NW 3.5 mph - N/A   Clear
6:31 AM 46.9 °F 45.0 °F 93% 30.38 in 10.0 mi West 6.9 mph - N/A   Partly Cloudy
6:43 AM 46.9 °F 46.0 °F 97% 30.39 in 1.0 mi West 6.9 mph - N/A   Mist
6:45 AM 46.9 °F 46.0 °F 97% 30.39 in 0.2 mi West 6.9 mph - N/A Fog Fog
6:53 AM 48.0 °F 46.0 °F 93% 30.10 in 0.2 mi West 5.8 mph - N/A Fog Fog
7:13 AM 48.9 °F 48.0 °F 97% 30.39 in 0.2 mi West 5.8 mph - N/A Fog Fog
7:30 AM 50.0 °F 48.0 °F 93% 30.39 in 0.5 mi West 5.8 mph - N/A Fog Fog
7:39 AM 50.0 °F 48.9 °F 96% 30.39 in 2.0 mi West 5.8 mph - N/A   Mostly Cloudy
7:46 AM 51.1 °F 48.9 °F 92% 30.40 in 10.0 mi West 5.8 mph - N/A   Mostly Cloudy
7:53 AM 51.1 °F 50.0 °F 96% 30.11 in 10.0 mi WNW 5.8 mph - N/A   Scattered Clouds
8:53 AM 59.0 °F 54.0 °F 83% 30.09 in 10.0 mi Calm Calm - N/A   Clear
9:53 AM 64.9 °F 53.1 °F 65% 30.09 in 10.0 mi Calm Calm - N/A   Clear
10:53 AM 71.1 °F 51.1 °F 49% 30.07 in 10.0 mi Variable 4.6 mph - N/A   Clear
11:53 AM 71.1 °F 48.0 °F 44% 30.07 in 10.0 mi West 9.2 mph 18.4 mph N/A   Clear
12:53 PM 75.0 °F 46.9 °F 37% 30.07 in 10.0 mi West 9.2 mph - N/A   Clear
1:53 PM 75.9 °F 44.1 °F 32% 30.06 in 10.0 mi NW 9.2 mph - N/A   Clear
2:53 PM 78.1 °F 43.0 °F 29% 30.03 in 10.0 mi West 16.1 mph 20.7 mph N/A   Clear
3:06 PM 77.0 °F 44.1 °F 31% 30.40 in 10.0 mi West 15.0 mph 20.7 mph N/A   Clear
3:53 PM 75.0 °F 39.9 °F 28% 30.04 in 10.0 mi West 5.8 mph - N/A   Scattered Clouds
4:53 PM 77.0 °F 43.0 °F 30% 30.02 in 10.0 mi Variable 4.6 mph - N/A   Scattered Clouds
5:53 PM 77.0 °F 41.0 °F 28% 30.01 in 10.0 mi SW 5.8 mph - N/A   Clear
6:53 PM 77.0 °F 41.0 °F 28% 29.99 in 10.0 mi SW 5.8 mph - N/A   Clear
7:53 PM 73.9 °F 44.1 °F 34% 30.00 in 10.0 mi WNW 5.8 mph - N/A   Clear
8:53 PM 66.0 °F 46.0 °F 48% 30.01 in 10.0 mi NW 8.1 mph - N/A   Clear
9:53 PM 60.1 °F 50.0 °F 69% 30.04 in 10.0 mi WSW 5.8 mph - N/A   Clear
10:53 PM 57.9 °F 48.0 °F 70% 30.05 in 10.0 mi West 5.8 mph - N/A   Clear
11:53 PM 55.0 °F 48.0 °F 77% 30.05 in 10.0 mi West 5.8 mph - N/A   Clear